EW3163 Weather Reports


Display with metric or nautical units.
time (UTC)temp
F
wind
direction
speed
MPH
gust
MPH
rain 1hr
in
rain 24hr
in
rain mn
in
humidity
%
barometer
mb
20260505010045 42 98 0.0 0.0 0.00 0.00 0.00 91 1014.1
20260505004546 42 98 0.0 0.0 0.00 0.00 0.00 90 1014.1
20260505003043 42 98 0.0 0.0 0.00 0.00 0.00 90 1014.1
20260505001549 42 98 0.0 0.0 0.00 0.00 0.00 89 1014.2
20260505000049 43 98 0.0 0.0 0.00 0.00 0.00 88 1014.2
20260504234543 44 98 0.0 0.0 0.00 0.00 0.00 87 1014.3
20260504233033 45 98 0.0 0.0 0.00 0.00 0.00 86 1014.3
20260504231529 45 98 0.0 0.0 0.00 0.00 0.00 85 1014.3
20260504230026 46 12 0.0 0.0 0.00 0.00 0.00 84 1014.2
20260504224528 47 32 0.0 0.0 0.00 0.00 0.00 84 1014.2
20260504223025 47 63 0.0 0.0 0.00 0.00 0.00 85 1014.2
20260504221529 47 357 0.0 0.0 0.00 0.00 0.00 84 1014.3
20260504220024 48 358 0.0 0.0 0.00 0.00 0.00 80 1014.4
20260504214523 49 357 0.0 0.0 0.00 0.00 0.00 79 1014.3
20260504213043 50 326 0.0 0.0 0.00 0.00 0.00 79 1014.2
20260504211522 51 332 0.0 0.0 0.00 0.00 0.00 79 1014.3
20260504210023 51 14 0.0 0.0 0.00 0.00 0.00 79 1014.4
20260504204522 52 89 0.0 0.0 0.00 0.00 0.00 79 1014.4
20260504203020 53 353 0.0 0.0 0.00 0.00 0.00 77 1014.2
20260504201525 54 353 0.0 0.0 0.00 0.00 0.00 76 1014.2
20260504200020 55 353 0.0 0.0 0.00 0.00 0.00 73 1014.1
20260504194520 56 355 0.0 0.0 0.00 0.00 0.00 72 1013.9
20260504193018 57 356 0.0 0.0 0.00 0.00 0.00 70 1013.8
20260504191519 57 313 0.0 0.0 0.00 0.00 0.00 69 1013.6
20260504190016 58 334 0.0 0.0 0.00 0.00 0.00 68 1013.6
20260504184516 58 306 0.0 1.0 0.00 0.00 0.00 66 1013.5
20260504183021 58 309 0.0 0.0 0.00 0.00 0.00 71 1013.4
20260504181514 58 191 0.0 0.0 0.00 0.00 0.00 80 1013.3
20260504180013 57 146 0.0 0.0 0.00 0.00 0.00 80 1013.3
20260504174512 57 158 0.0 0.0 0.00 0.00 0.00 80 1013.4
20260504173022 58 186 0.0 0.0 0.00 0.00 0.00 79 1013.5
20260504171517 58 158 0.0 0.0 0.00 0.00 0.00 79 1013.5
20260504140111 60 190 0.0 0.0 0.00 0.00 0.00 73 1014.2
20260504081506 47 9 0.0 0.0 0.00 0.00 0.00 96 1015.5
20260504044557 44 13 0.0 0.0 0.00 0.44 0.00 96 1014.6
20260504043044 44 13 0.0 0.0 0.00 0.44 0.00 96 1014.6
20260504041542 44 13 0.0 0.0 0.00 0.44 0.00 96 1014.5
20260504040041 44 13 0.0 0.0 0.00 0.44 0.00 96 1014.5
20260504034550 44 13 0.0 0.0 0.00 0.57 0.00 96 1014.7
20260504033051 45 13 0.0 0.0 0.00 0.57 0.00 96 1014.6
20260504031538 45 13 0.0 0.0 0.00 0.57 0.00 96 1014.6
20260504030038 45 13 0.0 0.0 0.00 0.57 0.00 96 1014.6
20260504024544 45 13 0.0 0.0 0.00 0.73 0.00 96 1014.7
20260504023036 45 13 0.0 0.0 0.00 0.73 0.00 96 1014.6
20260504021536 45 13 0.0 0.0 0.00 0.73 0.00 96 1014.5
20260504020035 45 13 0.0 0.0 0.00 0.73 0.00 96 1014.5
20260504014535 45 13 0.0 0.0 0.00 0.83 0.00 96 1014.5
20260504013036 45 13 0.0 0.0 0.00 0.83 0.00 96 1014.3
20260504011530 45 13 0.0 0.0 0.00 0.83 0.00 96 1014.2